Wind_Speed
36 35 35 35 34 34 34 34 34 34 34 34 34 35 35 36 36 37 37 37 37 37 37 37 37 37 38 38 40 41 41 41 41 41 40 39 40 40 40 40 39 39 39
37 37 36 36 36 35 36 36 36 36 36 36 36 36 36 37 37 37 37 38 38 38 39 39 40 40 41 41 41 41 42 42 42 42 41 41 41 41 41 40 40 40 40
38 37 37 36 36 37 37 37 37 37 38 38 38 38 39 39 40 40 40 40 40 40 40 41 41 42 42 42 42 43 43 44 44 44 44 44 43 43 42 42 41 42 42
40 39 39 38 38 38 39 39 39 39 40 40 40 41 41 41 41 42 42 42 42 42 43 44 44 44 44 45 45 45 45 45 45 46 45 45 45 45 44 44 43 43 43
40 41 40 40 40 41 41 41 41 41 41 41 42 42 42 42 43 43 44 44 45 45 45 46 46 47 47 47 47 47 47 47 47 47 47 47 46 46 45 45 45 45 45
42 41 42 43 43 43 43 43 43 43 43 43 43 44 44 45 45 45 46 47 48 48 48 48 48 49 49 49 49 49 49 49 50 49 49 49 48 47 46 47 47 46 46
44 44 44 44 44 44 45 45 45 45 44 44 46 46 46 46 46 47 48 49 49 49 49 49 50 50 50 50 50 51 51 51 51 51 51 50 49 49 48 48 49 48 48
46 46 46 46 46 46 46 46 47 46 46 47 47 47 47 47 47 48 48 49 49 50 50 50 50 50 50 50 50 51 51 51 51 51 51 51 50 51 50 50 49 49 49
49 49 48 48 47 47 47 48 48 48 48 48 49 48 49 48 47 47 47 48 49 49 49 49 49 50 50 50 50 50 51 51 51 51 50 50 51 51 51 51 51 50 50
49 49 49 49 48 48 49 49 50 50 50 49 49 50 50 50 49 48 47 48 48 49 49 49 49 50 50 50 51 51 51 51 51 51 50 51 51 51 51 51 51 51 51
49 49 49 50 50 51 50 51 51 51 51 51 50 51 51 50 50 50 48 47 48 48 49 50 51 51 51 50 50 51 51 51 51 51 51 51 51 51 51 51 51 51 51
49 49 49 50 51 51 51 51 51 51 51 51 51 51 52 51 50 49 49 48 48 49 49 50 51 51 51 51 51 51 50 50 50 50 50 50 50 51 51 51 51 51 51
50 51 51 51 51 51 51 50 50 50 51 51 51 51 51 52 51 51 50 49 49 48 49 49 50 51 51 51 50 49 48 48 48 48 48 49 49 50 51 51 50 50 51
51 50 51 51 51 51 51 50 50 51 51 51 51 51 51 51 51 51 50 50 49 48 47 48 49 50 50 50 48 47 47 47 46 47 47 48 48 48 48 49 49 50 49
51 51 51 51 51 51 52 51 51 51 51 51 52 51 50 51 50 50 50 50 49 48 46 46 47 47 47 47 46 45 44 44 45 45 45 45 46 47 48 47 48 48 47
51 51 52 51 51 51 52 52 51 51 52 52 52 52 52 51 51 50 49 48 47 46 45 44 45 43 43 43 43 42 42 42 42 42 43 44 45 45 45 46 46 46 46
49 50 51 51 51 51 52 51 51 51 51 52 53 52 51 51 51 50 49 47 46 45 44 43 42 40 41 42 42 41 40 40 39 39 39 40 40 42 43 43 44 44 44
46 47 48 49 50 51 51 51 51 51 51 50 51 51 51 50 50 49 48 46 46 45 44 42 41 40 39 40 39 38 38 37 36 36 36 37 38 38 39 40 40 41 41
44 44 45 46 48 49 50 50 50 50 50 50 50 50 49 49 48 48 47 46 45 44 43 41 40 39 38 37 37 35 34 34 34 34 35 36 36 35 35 37 37 36 37
41 41 41 43 45 46 47 48 49 49 49 48 48 47 46 46 46 45 44 44 43 41 40 39 39 38 36 35 34 32 32 32 32 32 33 34 34 33 32 33 34 34 34
38 38 39 39 40 42 43 44 45 46 46 46 45 44 44 43 42 41 40 39 39 37 37 37 37 36 34 33 32 31 32 32 32 33 32 33 32 32 31 31 31 32 32
37 37 37 37 38 39 38 39 40 41 41 41 42 42 41 40 39 38 37 36 35 35 35 35 34 33 32 31 31 31 31 31 31 31 31 30 31 30 29 28 28 29 29
35 36 36 35 36 35 35 35 36 37 37 37 38 38 37 36 35 34 34 33 33 33 33 33 32 32 31 31 31 30 30 30 29 28 28 27 27 27 27 26 27 27 27
33 33 33 32 32 32 32 33 33 33 33 34 33 33 32 32 31 31 30 30 30 30 30 29 30 30 30 30 30 29 28 27 26 26 25 24 24 25 26 25 25 25 26
29 29 28 27 27 28 28 28 29 29 29 29 29 29 29 29 28 28 27 27 27 27 26 26 26 27 29 29 29 28 28 27 26 25 25 24 24 24 24 24 24 24 24
26 25 25 25 25 25 25 25 27 27 27 26 26 26 25 25 25 25 25 25 24 24 24 24 24 25 27 27 27 27 26 26 25 25 24 22 22 22 23 23 24 24 23
Wind_Direction
258 260 260 261 261 262 263 264 264 265 267 268 268 269 269 270 270 270 271 272 272 272 272 272 273 273 274 275 274 274 273 274 274 274 275 276 276 277 278 278 279 279 279
258 259 260 259 260 261 263 264 264 265 266 267 269 270 270 270 271 272 271 271 272 272 272 273 273 273 274 274 275 275 275 274 273 274 275 275 276 277 277 278 278 279 279
257 259 259 260 262 263 263 264 264 266 267 268 269 270 271 270 270 271 272 271 272 272 273 273 274 274 274 275 275 275 275 274 275 274 274 274 275 276 276 277 278 278 279
257 259 259 260 263 264 265 265 266 267 267 268 269 270 271 271 271 272 273 272 272 272 272 273 274 274 274 274 275 276 275 275 275 275 274 273 273 273 274 276 276 277 278
258 258 260 262 264 265 266 266 266 267 268 269 269 270 271 271 272 272 272 273 272 273 274 274 274 273 274 275 276 276 276 275 275 274 273 272 272 272 272 274 275 276 276
259 260 262 263 264 266 266 267 267 268 269 269 270 271 272 272 273 273 273 274 274 274 274 275 274 274 274 275 276 276 276 276 275 273 273 272 271 270 271 272 274 275 275
260 262 263 263 264 265 266 267 268 268 269 270 271 272 273 274 274 275 274 274 274 274 274 274 274 274 274 275 276 275 275 275 274 273 272 271 271 269 270 271 273 274 275
260 263 263 264 265 266 267 267 268 269 270 271 273 273 274 274 274 275 276 276 275 275 274 274 274 274 274 275 275 276 275 275 274 273 272 270 269 269 269 270 272 273 274
260 262 264 265 266 266 268 269 269 269 271 271 273 274 275 276 275 275 277 276 276 275 274 274 274 275 275 276 276 277 276 275 274 272 272 271 269 269 269 269 270 271 272
261 262 264 265 266 267 268 268 268 270 271 272 272 274 276 276 276 276 277 277 276 276 275 274 274 276 276 277 277 277 277 276 275 274 273 271 270 268 269 269 270 270 271
262 263 264 264 265 267 267 268 269 270 271 272 273 274 276 276 276 277 277 277 276 276 276 275 275 276 276 278 278 278 279 278 275 274 274 272 270 269 269 268 269 269 271
263 263 264 265 266 267 268 269 270 270 271 272 273 275 276 276 276 277 279 279 277 276 275 276 277 277 277 278 279 279 279 277 275 274 274 273 271 270 269 268 268 268 270
265 265 265 265 266 267 268 268 269 270 271 273 274 275 275 276 276 277 278 279 279 278 277 277 277 277 278 279 279 278 277 277 275 274 274 273 271 270 269 268 267 269 270
265 265 266 266 266 266 267 268 270 271 272 273 273 274 275 275 276 277 277 278 278 278 277 278 278 279 279 279 279 277 276 276 275 275 274 273 271 270 269 268 268 269 270
265 265 266 266 266 267 268 268 270 270 271 272 273 273 274 275 275 277 278 278 278 277 276 277 278 278 278 278 278 278 277 276 276 276 274 273 271 270 269 269 268 269 271
267 266 266 267 266 267 268 268 268 269 270 272 272 273 274 275 275 277 277 276 276 276 276 277 277 277 279 279 279 277 277 278 277 275 274 273 273 272 270 269 268 269 270
268 268 268 267 266 267 268 268 268 269 270 270 271 272 273 274 275 276 275 273 273 273 274 276 276 277 278 279 278 276 276 276 276 276 276 275 275 273 271 271 269 269 270
270 270 269 268 267 267 267 268 268 268 269 270 270 271 272 273 274 274 274 273 272 272 273 275 275 275 277 278 276 275 274 275 275 275 276 276 276 277 276 274 272 272 271
271 271 270 269 268 267 267 266 267 267 268 269 269 270 271 272 273 272 273 272 272 271 272 274 274 275 275 276 275 274 272 272 274 276 277 276 277 277 278 276 274 273 272
272 272 272 271 271 269 268 267 267 267 268 268 268 269 270 271 272 272 273 272 271 271 271 272 273 273 274 273 272 273 273 274 276 277 278 278 277 277 278 278 276 274 273
272 274 274 274 273 271 269 268 267 267 268 269 268 269 270 270 271 272 272 271 270 269 269 270 270 270 270 269 269 271 273 276 279 280 281 281 278 277 278 278 276 276 275
273 275 275 275 273 271 270 269 268 268 268 268 267 268 268 269 271 271 270 269 268 267 267 268 269 268 267 265 267 270 273 276 278 280 282 280 279 276 275 276 277 278 277
274 276 276 275 273 271 271 270 270 269 268 268 268 268 268 269 269 269 268 267 267 267 268 267 267 265 264 263 266 269 274 276 278 280 279 278 275 272 275 279 280 282 281
276 277 277 276 274 273 272 272 271 270 268 267 268 267 265 267 268 269 267 266 268 269 268 266 266 263 262 263 265 268 273 275 277 277 277 276 276 274 275 277 281 283 280
277 277 277 276 275 274 273 271 271 270 268 268 268 266 266 266 268 268 266 267 268 267 266 264 263 262 263 265 266 269 271 272 274 276 277 277 277 276 276 277 280 283 282
278 277 276 275 274 273 272 271 269 268 267 268 268 267 266 265 265 265 266 267 268 266 265 262 262 262 263 265 266 268 271 272 274 275 276 277 278 277 277 279 279 281 282
Height
5781 5781 5781 5782 5781 5781 5781 5781 5781 5781 5780 5780 5780 5779 5779 5778 5778 5777 5777 5777 5776 5776 5775 5775 5774 5773 5772 5772 5771 5770 5770 5770 5769 5769 5768 5768 5767 5766 5766 5765 5764 5763 5762
5772 5773 5773 5773 5773 5773 5773 5773 5773 5772 5772 5772 5771 5771 5770 5770 5769 5769 5768 5768 5767 5767 5767 5766 5765 5764 5763 5762 5761 5761 5760 5760 5759 5759 5759 5758 5757 5756 5756 5755 5754 5753 5752
5763 5764 5765 5765 5765 5765 5765 5765 5764 5764 5764 5763 5763 5762 5761 5761 5760 5759 5759 5758 5758 5758 5757 5756 5755 5754 5753 5752 5751 5751 5750 5749 5749 5749 5748 5748 5747 5747 5746 5745 5745 5744 5743
5754 5755 5756 5756 5756 5756 5756 5756 5756 5755 5754 5754 5753 5753 5752 5751 5751 5750 5749 5748 5748 5748 5747 5746 5745 5744 5743 5742 5741 5740 5739 5738 5738 5737 5737 5737 5736 5736 5735 5735 5734 5733 5733
5744 5745 5746 5747 5747 5747 5747 5747 5746 5746 5745 5745 5744 5743 5742 5741 5741 5740 5739 5738 5737 5737 5736 5735 5734 5733 5732 5730 5729 5728 5727 5726 5726 5725 5725 5725 5725 5725 5724 5724 5723 5723 5722
5734 5735 5736 5737 5737 5737 5737 5737 5736 5736 5735 5735 5734 5733 5732 5731 5730 5729 5728 5727 5726 5725 5724 5723 5721 5721 5720 5718 5717 5716 5715 5714 5713 5713 5713 5713 5713 5713 5713 5713 5712 5712 5711
5724 5725 5726 5726 5726 5727 5727 5726 5726 5725 5724 5724 5723 5722 5721 5720 5719 5717 5716 5715 5713 5712 5711 5710 5708 5708 5707 5705 5704 5703 5702 5701 5700 5700 5700 5700 5700 5700 5700 5700 5700 5700 5699
5714 5715 5715 5715 5716 5716 5716 5715 5714 5714 5713 5712 5711 5710 5710 5709 5707 5706 5704 5702 5701 5699 5697 5696 5695 5694 5693 5692 5691 5689 5688 5687 5686 5686 5686 5686 5687 5687 5687 5688 5688 5688 5687
5702 5703 5704 5704 5704 5704 5704 5704 5703 5702 5702 5701 5699 5698 5697 5696 5696 5695 5692 5690 5688 5686 5684 5683 5681 5680 5679 5678 5677 5676 5674 5673 5672 5672 5672 5672 5673 5673 5674 5675 5675 5674 5674
5690 5691 5691 5691 5692 5692 5692 5692 5691 5690 5689 5688 5687 5685 5684 5683 5682 5682 5682 5678 5676 5673 5671 5670 5668 5667 5665 5664 5663 5662 5660 5659 5658 5658 5658 5658 5658 5659 5660 5661 5661 5661 5661
5677 5678 5678 5679 5679 5679 5679 5678 5678 5677 5676 5675 5674 5673 5672 5670 5668 5668 5668 5667 5664 5661 5659 5657 5655 5654 5652 5651 5650 5648 5647 5645 5645 5645 5644 5644 5644 5645 5646 5647 5648 5648 5648
5664 5665 5665 5665 5665 5665 5665 5665 5664 5664 5663 5662 5661 5660 5659 5658 5657 5655 5654 5653 5652 5650 5647 5644 5642 5640 5639 5638 5636 5634 5633 5631 5631 5631 5630 5630 5630 5631 5632 5633 5634 5634 5634
5652 5652 5651 5652 5652 5652 5652 5651 5651 5650 5650 5649 5648 5647 5646 5644 5644 5642 5640 5639 5638 5637 5635 5633 5630 5628 5626 5624 5623 5621 5620 5618 5617 5617 5617 5616 5616 5616 5617 5619 5620 5620 5620
5638 5638 5638 5638 5638 5638 5638 5638 5637 5637 5637 5636 5634 5633 5632 5631 5630 5629 5628 5626 5625 5625 5623 5621 5618 5616 5613 5611 5610 5608 5607 5606 5604 5604 5603 5603 5602 5603 5603 5604 5605 5606 5606
5624 5624 5624 5624 5624 5624 5625 5625 5624 5624 5623 5622 5621 5620 5619 5618 5617 5616 5615 5613 5612 5611 5611 5609 5606 5604 5601 5599 5597 5596 5595 5594 5592 5591 5590 5590 5590 5590 5590 5591 5591 5592 5593
5610 5610 5610 5610 5610 5610 5610 5610 5610 5610 5609 5608 5607 5607 5606 5605 5604 5603 5602 5600 5599 5598 5598 5597 5594 5592 5590 5588 5586 5585 5583 5582 5581 5579 5578 5578 5577 5577 5577 5578 5578 5579 5579
5596 5595 5595 5595 5596 5596 5596 5596 5596 5596 5596 5595 5594 5594 5593 5592 5591 5590 5589 5588 5587 5586 5585 5585 5583 5581 5579 5577 5575 5574 5572 5571 5570 5569 5567 5567 5566 5566 5566 5566 5566 5566 5567
5582 5581 5581 5581 5581 5582 5582 5582 5582 5582 5582 5581 5581 5581 5580 5580 5579 5578 5577 5576 5575 5574 5574 5573 5572 5570 5569 5567 5565 5563 5562 5561 5560 5559 5558 5557 5556 5556 5555 5555 5554 5555 5555
5569 5568 5568 5567 5567 5567 5567 5568 5568 5568 5569 5568 5568 5568 5568 5567 5567 5566 5565 5564 5563 5563 5562 5562 5562 5560 5559 5557 5555 5554 5553 5551 5550 5549 5548 5548 5547 5546 5545 5545 5544 5544 5543
5558 5556 5555 5555 5554 5553 5554 5554 5554 5555 5555 5556 5556 5556 5556 5555 5555 5554 5553 5552 5552 5552 5551 5551 5551 5550 5549 5547 5546 5545 5544 5543 5542 5540 5539 5538 5537 5536 5535 5535 5534 5534 5533
5546 5545 5544 5543 5542 5541 5542 5541 5542 5542 5543 5543 5544 5544 5544 5544 5543 5543 5542 5542 5541 5541 5541 5541 5541 5541 5540 5539 5538 5537 5537 5535 5533 5532 5531 5530 5529 5527 5526 5526 5525 5525 5525
5536 5534 5533 5532 5531 5531 5530 5530 5530 5530 5531 5532 5532 5533 5533 5533 5533 5533 5532 5532 5532 5532 5532 5532 5532 5532 5532 5532 5531 5530 5529 5528 5527 5526 5524 5522 5520 5519 5518 5518 5518 5517 5517
5526 5525 5523 5522 5521 5521 5520 5520 5519 5519 5520 5521 5522 5522 5522 5523 5523 5523 5523 5523 5523 5523 5523 5523 5523 5523 5524 5524 5524 5524 5522 5521 5519 5518 5517 5515 5513 5513 5512 5511 5511 5510 5509
5517 5515 5514 5513 5512 5511 5511 5511 5511 5510 5511 5511 5512 5513 5513 5514 5514 5515 5515 5515 5515 5515 5516 5516 5516 5516 5516 5516 5517 5517 5515 5514 5513 5511 5511 5510 5508 5507 5506 5505 5504 5503 5502
5508 5507 5506 5505 5504 5504 5503 5503 5503 5503 5503 5504 5504 5504 5505 5506 5506 5507 5507 5508 5508 5508 5508 5508 5509 5509 5509 5510 5510 5510 5509 5508 5507 5506 5505 5505 5503 5502 5501 5500 5498 5497 5496
5501 5500 5499 5498 5497 5497 5496 5496 5496 5496 5496 5497 5497 5497 5498 5498 5499 5499 5500 5500 5501 5501 5502 5502 5502 5503 5503 5503 5503 5503 5503 5502 5502 5501 5499 5499 5498 5497 5497 5495 5493 5492 5491